Regional Weather Roundup
Issued by NWS Sterling, VA

Home | Current Version | Previous Version | Graphics & Text | Print | Product List | Glossary On
Versions: 1 2 3 4 5 6 7 8 9 10 11 12 13 14 15 16 17 18 19 20 21 22 23 24 25 26 27 28
000
ASUS41 KLWX 250110
RWRLWX

REGIONAL WEATHER ROUNDUP
NATIONAL WEATHER SERVICE BALTIMORE MD/WASHINGTON DC
900 PM EDT WED AUG 24 2016

Note: "FAIR" indicates few or no clouds below 12,000 feet
with no significant weather and/or obstructions to visibility.
 TC=TEMPERATURE CELSIUS

 * =Non NWS site. Station does not report precipitation (e.g. rain,
    snow, etc.), thunder, or fog.

DCZ001-MDZ009-015-VAZ040>042-051-053>054-250200-
WASHINGTON METRO

CITY           SKY/WX    TMP DP  RH WIND       PRES   REMARKS
WASHINGTON NAT CLOUDY    78  65  63 S13       30.20R
DULLES         PTCLDY    76  66  71 SE8       30.18S
ANDREWS AFB    PTCLDY    72  63  74 S7        30.19R
FT BELVOIR     CLEAR     74  64  70 SE3       30.19R
QUANTICO       CLEAR     78  68  71 S12       30.19R
COLLEGE PARK*  CLOUDY    77  63  61 S5        30.19R
LEESBURG*      CLEAR     79  70  73 S10       30.19S
MANASSAS*      CLEAR     73  68  83 S5        30.18R
GAITHERSBURG*  CLEAR     75  63  64 SE6       30.23R

$$

MDZ006>007-011-014-250200-
BALTIMORE METRO

CITY           SKY/WX    TMP DP  RH WIND       PRES   REMARKS
BWI AIRPORT    PTCLDY    75  64  68 S6        30.19R
MARTIN STATE   PTCLDY    79  68  69 S5        30.19S
ANNAPOLIS      CLEAR     78  63  59 S6        30.18S
FORT MEADE*    CLEAR     68  63  83 CALM      30.22R

$$

MDZ012-015-019>023-250200-
MARYLAND EASTERN SHORE

CITY           SKY/WX    TMP DP  RH WIND       PRES   REMARKS
OCEAN CITY     CLEAR     75  62  64 S3        30.22S
SALISBURY      CLEAR     68  63  84 SE6       30.21S
BAY BRIDGE AP* CLEAR     77  63  61 S7        30.19S
CAMBRIDGE*     CLEAR     68  61  77 CALM      30.21R
EASTON*        CLEAR     77  64  65 S7        30.24R

$$

MDZ017>025-250200-
SOUTHERN MARYLAND

CITY           SKY/WX    TMP DP  RH WIND       PRES   REMARKS
PATUXENT RIVER PTCLDY    73  60  63 S6        30.20R
ST INIGOES     CLEAR     76  61  59 S8        30.19S
LEONARDTOWN*   CLEAR     72  59  64 CALM      30.22S

$$

MDZ003>005-250200-
NORTH CENTRAL MARYLAND

CITY           SKY/WX    TMP DP  RH WIND       PRES   REMARKS
FREDERICK*     CLEAR     75  68  78 S3        30.20R
HAGERSTOWN APT CLEAR     78  66  66 SE9       30.16S

$$

MDZ501>502-250200-
WESTERN MARYLAND

CITY           SKY/WX    TMP DP  RH WIND       PRES   REMARKS
OAKLAND*       CLEAR     68  61  77 SW5       30.25F
CUMBERLAND*    PTCLDY    79  64  61 S3        30.18S

$$

VAZ025>031-250200-
SHENANDOAH VALLEY

CITY           SKY/WX    TMP DP  RH WIND       PRES   REMARKS
WINCHESTER*    CLOUDY    77  64  65 S6        30.17S
FRONT ROYAL*   FAIR      73  68  83 CALM      30.16S
LURAY*         FAIR      75  66  73 S3        30.18S
NEW MARKET*    FAIR     N/A N/A N/A CALM      30.16S
STAUNTON*      CLEAR     74  67  77 S5        30.22S
WAYNESBORO*    FAIR      73  66  78 S3        30.23R

$$

WVZ021-048>050-054>055-250200-
EASTERN WEST VIRGINIA PANHANDLE

CITY           SKY/WX    TMP DP  RH WIND       PRES   REMARKS
MARTINSBURG    CLEAR     74  67  78 SE3       30.15S
PETERSBURG*    CLEAR     79  65  62 CALM      30.15R

$$

VAZ036>039-050-250200-
CENTRAL FOOTHILLS

CITY           SKY/WX    TMP DP  RH WIND       PRES   REMARKS
CHARLOTTESVILL PTCLDY    77  67  71 S5        30.19S
CULPEPER*      CLEAR     72  68  88 CALM      30.19S
ORANGE*          N/A     73  70  88 CALM      30.21S
GORDONSVILLE*  FAIR      72  70  94 CALM      30.19R
WARRENTON*     FAIR      75  63  65 SE5       30.18S

$$

VAZ055>057-250200-
NORTH AND CENTRAL PIEDMONT

CITY           SKY/WX    TMP DP  RH WIND       PRES   REMARKS
FREDERICKSBRG* CLEAR     74  67  79 S6        30.18S
STAFFORD*      CLEAR     73  66  81 CALM      30.23S

$$

NCZ024-NYZ072-PAZ021-071-VAZ022-071-250200-
OTHER REGIONAL OBSERVATIONS

CITY           SKY/WX    TMP DP  RH WIND       PRES   REMARKS
NEW YORK CITY    N/A     79  64  61 MISG        N/A
PHILADELPHIA   MOCLDY    76  61  59 S13       30.19S
PITTSBURGH     MOCLDY    79  63  57 S5        30.12S
ROANOKE        PTCLDY    76  69  79 SE3       30.24R
RICHMOND       PTCLDY    72  62  71 SE8       30.20R
RALEIGH        PTCLDY    76  64  66 CALM      30.22R

$$

ANZ530>537-250200-
MARINE OBSERVATIONS

STATION/POSITION TIME  TEMP    WIND        PRES
                       AIR SEA DIR/SP/G
                 (UTC) (F)     (DEG/KT/KT) (MB)
THOMAS PT LIGHT  0100   80 82  180/ 16/ 17 1023.3R
BALT KEY BRIDGE  0042   79     160/ 12/ 14   N/A
COVE POINT       0042   79     190/ 13/ 15   N/A
LEWISETTA        0042   76 82  200/  7/  8   N/A
SOLOMONS ISLAND  0042   77 83  170/  9/ 11   N/A
PINEY POINT      0036          190/ 12/ 14   N/A

$$





USA.gov is the U.S. government's official web portal to all federal, state and local government web resources and services.